Location: Góry Miechowskie
(50.3599°N, 20.1803°E)
Time: 22:08:31
(UTC+00:00)

Transit 2A Rocket - Pass Details

Date: 17 September 2024
Orbit: 582 x 908 km, 66.7° (Epoch: 09 October)

Event Time Altitude Azimuth Distance (km) Brightness Sun altitude
Exits shadow 23:08:30 36° 357° (N) 1,400 6.6 -37.3°
Drops below altitude 10° 23:12:40 10° 31° (NNE) 2,591 8.4 -37.2°
Sets 23:15:18 0° 38° (NE) 3,514 9.2 -37.1°
